Probability
0 0 0 0 0 0 0 0 0 0 0 0 0 0 1 1 1 1 6 15 20 22 24 24 24 27 26 18 13 12 12 10 8 6 4 2 0 0 0 0 0 0 1
0 0 0 0 0 0 0 0 0 0 0 0 0 0 0 0 1 1 4 11 18 22 24 25 25 27 25 18 13 12 12 12 11 9 6 3 1 1 1 0 0 1 2
0 1 1 1 0 0 0 0 0 0 0 0 0 0 0 0 0 1 2 5 11 15 19 23 25 24 21 17 13 10 9 9 10 10 9 5 3 2 2 1 1 1 2
1 2 2 2 1 1 1 1 1 0 0 0 0 0 0 0 0 0 1 1 3 6 11 17 19 19 18 15 11 8 6 5 6 8 8 7 4 3 3 3 2 2 1
4 3 3 3 3 2 2 2 2 1 1 1 0 0 0 0 0 0 0 0 0 1 4 9 12 13 14 14 10 7 4 3 3 5 6 5 3 3 3 3 3 3 1
7 5 4 4 3 3 3 3 2 1 1 0 0 0 0 0 0 0 0 0 0 0 1 2 4 5 8 9 8 6 3 1 1 3 3 2 1 1 2 2 3 2 1
8 6 5 4 3 3 3 2 1 1 0 0 0 0 0 0 0 0 0 0 0 0 0 0 1 1 3 4 4 3 1 0 1 2 2 1 0 0 1 1 1 1 0
6 5 3 2 1 2 1 1 0 0 0 0 0 0 0 0 0 0 0 0 0 0 0 0 0 0 0 1 1 1 0 0 1 1 1 0 0 0 0 0 0 0 0
4 3 2 1 0 0 0 0 0 0 0 0 0 0 0 0 0 0 0 0 0 0 0 0 0 0 0 0 0 0 0 0 0 0 0 0 0 0 0 0 0 0 0
3 3 3 2 1 0 0 0 0 0 0 0 0 0 0 0 0 0 0 0 0 0 0 0 0 0 0 0 0 0 0 0 0 0 0 0 0 0 0 0 0 0 0
2 2 2 2 1 0 0 0 0 0 0 0 0 0 0 0 0 0 0 0 0 0 0 0 0 0 0 0 0 0 0 0 0 0 0 0 0 0 0 0 0 0 0
1 1 1 1 1 0 0 0 0 0 0 0 0 0 0 0 0 0 0 0 0 0 0 0 0 0 0 0 0 0 0 0 0 0 0 0 0 0 0 0 0 0 0
0 0 0 0 0 0 0 0 0 0 0 0 0 0 0 0 0 0 0 0 0 0 0 0 0 0 0 0 0 0 0 0 0 0 0 0 0 0 0 0 0 0 0
0 0 0 0 0 0 0 0 0 0 0 0 0 0 0 0 0 0 0 0 0 0 0 0 0 0 0 0 0 0 0 0 0 0 0 0 0 0 0 0 0 0 0
0 0 0 0 0 0 0 0 0 0 0 0 0 0 0 0 0 0 0 0 0 0 0 0 0 0 0 0 0 0 0 0 0 0 0 0 0 0 0 0 0 0 0
0 0 0 0 0 0 0 0 0 0 0 0 0 0 0 0 0 0 0 0 0 0 0 0 0 0 0 0 0 0 0 0 0 0 0 0 0 0 0 0 0 0 0
0 0 0 0 0 0 0 0 0 0 0 0 0 0 0 0 0 0 0 0 0 0 0 0 0 0 0 0 0 0 0 0 0 0 0 0 0 0 0 0 0 0 0
0 0 0 0 0 0 0 0 0 0 0 0 0 0 0 0 0 0 0 0 0 0 0 0 0 0 0 0 0 0 0 0 0 0 0 0 0 0 0 0 0 0 0
0 0 0 0 0 0 0 0 0 0 0 0 0 0 0 0 0 0 0 0 0 0 0 0 0 0 0 0 0 0 0 0 0 0 0 0 0 0 0 0 0 0 0
0 0 0 0 0 0 0 0 0 0 0 0 0 0 0 0 0 0 0 0 0 0 0 0 0 0 0 0 0 0 0 0 0 0 0 0 0 0 0 0 0 0 0
0 0 0 0 0 0 0 0 0 0 0 0 0 0 0 0 0 0 0 0 0 0 0 0 0 0 0 0 0 0 0 0 0 0 0 0 0 0 0 0 0 0 0
0 0 0 0 0 0 0 0 0 0 0 0 0 0 0 0 0 0 0 0 0 0 0 0 0 0 0 0 0 0 0 0 0 0 0 0 0 0 0 0 0 0 0
0 0 0 0 0 0 0 0 0 0 0 0 0 0 0 0 0 0 0 0 0 0 0 0 0 0 0 0 0 0 0 0 0 0 0 0 0 0 0 0 0 0 0
0 0 0 0 0 0 0 0 0 0 0 0 0 0 0 0 0 0 0 0 0 0 0 0 0 0 0 0 0 0 0 0 0 0 0 0 0 0 0 0 0 0 0
0 0 0 0 0 0 0 0 0 0 0 0 0 0 0 0 0 0 0 0 0 0 0 0 0 0 0 0 0 0 0 0 0 0 0 0 0 0 0 0 0 0 0
0 0 0 0 0 0 0 0 0 0 0 0 0 0 0 0 0 0 0 0 0 0 0 0 0 0 0 0 0 0 0 0 0 0 0 0 0 0 0 0 0 0 0
Wind_Speed
4 4 3 3 3 2 3 3 2 2 1 1 1 0 0 1 1 1 2 9 10 10 10 10 10 9 8 8 7 7 7 7 7 7 7 7 6 6 6 7 7 7 7
4 4 3 3 3 3 3 2 2 1 1 0 1 1 1 1 1 1 1 3 6 6 5 5 6 7 7 7 6 5 5 5 5 5 5 5 6 6 6 7 7 8 8
4 4 3 3 2 2 2 2 2 1 1 1 2 2 2 2 2 2 1 1 1 3 3 3 5 5 5 6 5 4 4 3 3 3 3 2 2 3 4 5 6 7 8
4 4 3 2 2 2 2 2 2 2 1 1 1 1 2 2 2 2 2 2 1 1 1 2 2 3 3 3 3 2 2 1 1 1 1 1 1 1 2 2 3 5 6
4 4 3 2 3 2 2 2 2 2 1 1 1 2 2 2 2 3 3 3 2 2 2 2 3 3 3 3 2 2 2 2 2 1 1 1 1 2 2 3 3 4 5
5 4 3 3 3 3 3 2 3 3 2 1 2 3 3 3 3 3 3 3 2 3 3 3 2 3 5 5 4 3 4 5 4 4 4 4 5 5 4 4 5 5 6
5 5 4 4 4 4 3 3 2 4 3 2 2 2 3 3 4 3 3 3 4 4 4 3 3 2 2 6 6 6 6 5 5 6 7 8 8 7 7 6 7 7 7
6 5 6 5 4 4 5 4 3 2 2 3 2 2 1 3 4 4 4 4 4 3 4 4 3 3 3 2 4 7 7 6 6 7 8 8 9 9 9 9 9 9 9
8 8 8 6 6 6 5 5 4 3 2 3 3 2 2 1 1 2 4 4 4 4 3 3 4 3 3 3 2 5 6 6 6 7 7 7 8 8 9 10 10 10 10
9 8 8 8 7 6 6 6 6 4 4 3 3 3 3 2 1 1 2 3 4 4 4 3 3 3 3 2 3 5 5 4 4 5 6 7 8 8 9 10 10 11 11
9 8 8 8 8 7 7 7 7 7 5 4 3 2 3 4 3 2 2 3 3 3 3 3 2 2 2 2 1 2 2 2 3 4 6 7 8 9 11 11 11 12 12
6 9 9 8 7 7 7 7 7 8 7 7 6 5 4 3 2 3 2 2 2 3 3 3 3 2 2 1 1 2 2 3 4 5 7 8 10 11 12 13 13 13 14
6 7 7 7 6 6 7 7 7 7 7 7 6 5 5 4 2 2 2 1 2 2 3 3 3 2 2 2 2 5 5 6 7 8 10 11 12 13 13 14 14 14 15
6 6 7 7 7 7 7 7 6 6 6 7 8 6 5 4 4 3 2 2 2 3 3 4 3 3 3 2 3 5 4 8 10 10 11 12 13 14 14 15 15 15 15
6 7 7 8 8 7 7 7 6 6 6 6 6 6 5 4 4 3 3 2 2 1 2 3 3 4 3 3 4 3 4 9 11 11 12 12 14 14 15 15 15 14 14
6 7 8 8 8 8 8 7 5 5 6 5 4 6 5 3 4 4 3 3 2 2 1 3 2 4 4 5 7 5 5 11 12 12 13 13 13 14 15 15 14 14 14
7 8 8 8 8 8 7 6 6 6 6 6 5 5 5 4 4 4 3 3 3 1 0 3 3 3 4 5 6 5 5 5 6 13 14 13 13 13 13 13 13 13 13
7 7 7 7 7 7 6 6 6 5 5 5 4 4 4 3 4 3 3 3 2 1 0 3 3 3 4 5 5 5 5 5 5 11 13 13 13 13 12 12 12 12 12
7 7 7 7 6 6 6 6 5 5 5 4 3 3 3 3 3 2 2 2 2 2 1 1 4 3 3 3 4 5 5 4 6 8 10 10 12 13 13 12 12 12 11
7 6 6 6 5 5 5 5 5 5 5 4 4 3 2 1 1 2 2 3 2 3 3 2 3 4 3 4 3 4 5 5 6 7 7 9 11 13 13 13 13 12 11
6 5 5 4 4 4 4 4 4 5 5 5 5 4 3 1 1 2 2 3 2 2 3 3 3 3 4 4 4 3 4 5 6 3 4 6 6 5 7 10 11 11 11
5 5 5 4 4 3 5 7 5 4 4 4 4 5 4 2 4 6 8 7 5 3 3 2 3 4 6 5 4 3 3 3 5 4 3 6 4 5 5 5 9 11 10
3 4 3 3 3 3 6 8 8 3 3 3 4 3 3 2 3 4 7 9 8 9 6 4 4 5 5 5 4 5 4 3 5 5 2 5 4 4 5 6 10 10 10
2 2 2 2 1 2 5 7 8 5 4 4 4 3 2 3 3 4 5 6 6 6 7 4 5 7 7 7 5 4 4 4 6 5 2 3 4 4 5 5 8 10 10
1 1 2 3 1 1 3 6 7 4 4 5 5 4 3 3 5 6 5 6 8 7 7 8 9 10 12 12 7 2 3 2 4 4 1 2 3 4 4 4 6 9 11
1 2 2 2 2 1 2 4 6 3 4 5 5 5 6 5 8 8 4 4 6 7 7 10 10 10 8 8 7 4 4 2 2 4 3 1 3 3 4 4 4 5 6
Wind_Direction
188 185 187 187 198 201 200 204 211 218 229 244 259 243 270 233 217 185 206 200 203 206 204 205 201 198 198 200 202 202 202 206 208 206 203 203 207 211 215 214 213 211 211
175 172 173 174 189 194 193 184 177 173 182 149 70 69 67 71 77 97 129 197 196 193 192 197 207 202 197 193 191 193 194 196 204 206 205 207 213 219 223 223 222 219 216
154 149 151 159 175 170 162 140 137 127 107 91 71 60 67 66 78 97 112 105 151 157 166 187 216 206 197 195 190 187 183 181 187 189 192 197 206 221 231 232 233 230 224
135 132 134 140 134 123 125 126 117 94 76 68 51 43 59 71 72 78 75 82 84 104 132 142 178 177 178 183 182 165 150 149 165 179 184 190 197 239 256 254 251 250 242
117 116 115 112 106 94 81 95 77 90 76 40 36 52 44 53 52 61 61 68 64 70 78 70 82 91 104 105 107 100 83 63 39 19 0 350 351 323 297 286 282 277 268
99 103 97 88 86 81 65 66 75 62 64 38 50 54 42 46 52 53 55 56 50 52 59 60 58 68 78 77 70 66 66 58 47 35 21 11 1 349 335 321 302 290 281
76 82 87 74 71 76 69 65 80 67 42 17 66 46 30 43 54 46 44 49 45 42 50 58 59 57 63 73 71 64 50 43 43 42 34 24 16 2 343 330 323 313 303
58 69 73 71 65 69 57 47 60 82 45 30 75 91 36 14 32 39 40 51 45 38 46 58 64 67 65 61 68 72 64 48 37 34 30 21 10 2 352 339 325 314 304
58 62 62 66 61 65 61 46 44 75 80 38 42 92 122 164 345 8 38 39 35 35 30 40 58 65 76 68 61 68 71 53 35 22 15 6 356 348 341 334 327 322 318
56 61 65 69 67 65 62 54 47 50 72 61 40 41 72 100 107 18 9 14 23 35 24 36 48 57 69 66 73 75 63 47 24 3 350 343 338 332 326 322 321 317 314
56 59 60 64 65 64 63 59 56 56 57 61 52 40 46 46 46 83 25 346 355 7 19 33 41 50 67 71 62 63 43 7 345 333 326 320 318 318 316 314 312 309 307
60 59 63 62 62 63 62 60 59 59 59 61 57 53 55 55 35 57 64 353 344 336 7 22 28 28 31 45 354 356 319 309 306 300 300 303 305 306 306 306 304 303 303
70 61 65 63 62 62 62 60 60 56 55 59 57 55 56 54 49 62 73 22 350 330 353 6 10 14 15 2 334 326 320 312 302 297 296 297 298 299 300 300 299 298 297
80 72 69 67 64 63 63 58 59 56 55 55 54 51 52 42 43 49 70 73 27 351 352 342 335 358 351 325 307 313 306 307 303 295 291 291 293 295 295 296 293 291 292
82 73 70 66 61 59 59 58 58 54 55 54 51 49 48 35 39 43 51 75 101 37 325 324 333 330 332 309 299 301 289 295 302 297 293 291 292 291 291 291 287 285 286
77 77 71 67 61 56 56 58 54 50 53 44 49 51 47 35 33 34 39 47 78 130 290 294 293 300 316 329 326 318 295 308 308 306 302 297 294 291 289 289 287 283 282
75 77 74 70 64 56 51 53 51 50 52 43 40 48 44 42 36 27 29 35 40 79 329 292 284 300 319 325 325 319 308 303 304 309 306 303 300 295 291 292 289 284 279
75 78 77 72 68 61 51 49 44 45 49 44 36 39 30 38 35 24 29 24 12 24 55 307 304 315 315 313 313 315 319 320 308 307 309 310 311 307 301 295 289 284 280
79 81 81 75 67 60 52 44 42 42 37 33 30 30 16 39 24 7 11 1 339 347 345 304 298 297 296 310 322 317 315 310 312 313 313 317 317 314 308 302 294 287 280
87 86 86 81 71 58 48 35 34 36 23 13 6 2 357 20 343 331 331 324 321 326 321 314 300 302 299 302 315 313 320 320 313 312 315 318 314 315 313 309 302 294 285
92 96 93 81 70 61 41 35 24 24 12 0 352 348 339 347 4 342 324 305 307 303 309 309 302 306 303 313 313 299 305 310 308 294 314 310 310 308 309 310 306 298 294
86 93 94 89 69 52 33 32 30 14 359 352 341 338 339 6 2 356 346 335 321 297 293 283 286 294 289 285 280 285 299 324 312 297 316 302 304 299 296 291 294 299 299
96 103 110 103 84 30 26 21 18 19 356 340 329 325 331 339 352 337 335 334 327 316 298 252 261 272 273 274 281 292 286 274 266 275 308 292 301 299 296 303 310 309 306
110 124 135 137 117 11 19 19 17 21 9 351 335 314 304 302 303 324 325 323 315 307 296 279 250 262 265 266 247 246 259 282 277 270 232 270 295 297 304 308 311 316 315
118 151 160 164 157 322 348 14 26 11 2 348 338 336 320 294 298 318 320 318 317 310 304 302 292 285 281 279 267 237 270 285 302 299 272 247 286 303 306 305 310 322 322
156 158 160 186 188 238 320 2 23 12 357 343 336 333 323 308 306 311 292 292 304 303 316 324 323 322 312 306 300 228 222 234 267 289 281 275 287 324 320 300 300 312 319